Flag for Comoros Weather past 2 weeks in Moroni, Comoros

Now
70 °F

Passing clouds.


Feels Like: 70 °F
Forecast: 71 / 83 °F
Wind: 5 mph from Southeast

Location: Hahaya International Airport

Current Time: Aug 22, 2014 at 5:45:06 AM

Latest Report: Aug 22, 2014 at 5:00 AM


Visibility: N/A

Pressure: 29.92 "Hg

Humidity: 94%

Dew point: 68 °F

Location of MoroniLocation

Historic Weather in Moroni — Graph

°F

Moroni temperature yesterday

Maximum temperature yesterday: 84 °F (at 2:00 PM)
Minimum temperature yesterday: 70 °F (at 6:00 AM)
Average temperature yesterday: 78 °F

Past Weeks' High & Low Weather Summary

 TemperatureHumidityPressure
High88 °F (Aug 7, 11:00 AM)100% (Aug 9, 9:00 PM)30.21 "Hg (Aug 9, 9:00 PM)
Low66 °F (Aug 17, 11:00 PM)46% (Aug 7, 12:00 PM)29.92 "Hg (Aug 7, 3:00 PM)
Average78 °F74%30.06 "Hg
* Reported Aug 7 6:00 AM — Aug 22 3:00 AM, Moroni, Weather by CustomWeather, © 2014

Note: Actual official high and low records may vary slightly from our data, if they occured in-between our weather recording intervals... More about our weather records

Advertising

Moroni weather history for previous 24 hours

 ConditionsComfort  
Time TempWeatherWind HumidityBarometerVisibility
3:00 AM
Aug 22
70 °FPassing clouds.7 mph94%29.95 "HgN/A
2:00 AM70 °FPassing clouds.5 mph94%29.95 "HgN/A
1:00 AM72 °FPassing clouds.5 mph88%29.98 "HgN/A
12:00 AM72 °FPassing clouds.3 mph88%29.98 "HgN/A
11:00 PM
Aug 21
72 °FPassing clouds.3 mph88%30.01 "HgN/A
10:00 PM72 °FPassing clouds.2 mph94%30.01 "HgN/A
9:00 PM75 °FPassing clouds.No wind89%30.01 "HgN/A
7:00 PM77 °FPassing clouds.No wind89%29.98 "HgN/A
6:00 PM79 °FPartly sunny.3 mph79%29.98 "HgN/A
5:00 PM81 °FPartly sunny.3 mph74%29.98 "HgN/A
4:00 PM81 °FPartly sunny.7 mph74%30.01 "HgN/A
3:00 PM84 °FPartly sunny.8 mph66%30.01 "HgN/A
2:00 PM84 °FScattered clouds.9 mph66%30.01 "HgN/A
1:00 PM82 °FScattered clouds.9 mph70%30.04 "HgN/A
12:00 PM82 °FScattered clouds.10 mph70%30.04 "HgN/A
11:00 AM81 °FPassing clouds.9 mph70%30.07 "HgN/A
10:00 AM81 °FPassing clouds.7 mph66%30.07 "HgN/A
9:00 AM81 °FPassing clouds.7 mph66%30.07 "HgN/A
8:00 AM81 °FPassing clouds.6 mph62%30.07 "HgN/A
7:00 AM73 °FPassing clouds.2 mph74%30.04 "HgN/A
6:00 AM70 °FPassing clouds.5 mph83%30.04 "HgN/A
Weather by CustomWeather, © 2014

See weather overviewHow to use our weather pages